STARLINK-2502, 48327

Orbit data source: Space-Track

STARLINK-2502, 48327 is a payload satellite owned by SpaceX/Seattle (US) in LEO that was launched on Thu, 29 Apr 2021 UTC via an FALCON 9 launch vehicle from the Air Force Eastern Test Range (AFETR). Payload-class satellites include a variety of spacecraft equipped with specific instruments for various scientific and technological missions. These include communications satellites like Starlink; space stations such as the ISS; scientific satellites like the Hubble; Earth observation satellites from companies like Planet Labs, Umbra, and HawkEye 360; GPS; miniature CubeSats for education and research; and military/defense satellites.

Loading next visibility...
Identifier
48327, 2021-036BD
Orbit
LEO
Country
Flag of USUS
Related business
Manufacturer
SpaceX/Seattle
Mission
Operational Commercial Communications
Bus & Motor
STARLINK, Unknown motor
Mass
260 kg wet, ~248 kg dry
Launch date (UTC)
2021-04-29 (5 years ago)
Launch vehicle
FALCON 9
Launch site
Air Force Eastern Test Range (AFETR)
Object type
Payload
Rocket body
Debris
Shape & HBR
Box + 1 Pan, 10.1 m
Radar Cross Section
13.562 m², Large (>1 m²)

Expand to show TLE details & history
Last TLE update: 16 hours ago

TLE from 16 hours ago
0 STARLINK-2502
1 48327U 21036BD  26036.97868028  .00001378  00000-0  11135-3 0  9994
2 48327  53.0543 243.9713 0001336 106.9955 253.1181 15.06403768263252
Epoch: 2026-02-05T23:29Z
TLE epoch observation values (Epoch: 2026-02-05T23:29:17.976Z)
Latitude
0.00004°
Longitude
115.52328°
Altitude
548.348 km
Speed
7.589 km/s
True Right ascension
16h 15m 53s
True Declination
0° 00' 00"
Sunlit
Object was in daylight at epoch
Visualization orbit readout
Latitude
Unknown
Longitude
Unknown
Altitude
Unknown
Speed
Unknown
Apparent Right ascension
Unknown
Apparent Declination
Unknown
Sunlit
N/A
Visualization observer readout
Local Sidereal Time
18:02:48
Azimuth
Unknown
Elevation
Unknown
Doppler factor
Unknown
Orbital elements
Apogee altitude
548.396 km
Perigee altitude
546.546 km
Semi-major axis
6,925.608 km
Eccentricity
0.00013
Inclination
53.0543°
RAAN
243.9713°
Arg. of periapsis
106.9955°
True anomaly
253.10345°
Mean anomaly
253.1181°
Eccentric anomaly
253.11078°
Mean motion
3.76579 °/min
Orbital period
95.6 mins
BSTAR
0.00011135
Loading maneuver chart data...
Computing Atmospheric mass density...
Loading historical data...
Loading historical data...
Loading historical data...
Loading historical data...
Loading historical data...
Loading historical data...
Loading historical data...

Documentation

Showing up to 5 results
|